TimeCST,TemperatureF,Dew PointF,Humidity,Sea Level PressureIn,VisibilityMPH,Wind Direction,Wind SpeedMPH,Gust SpeedMPH,PrecipitationIn,Events,Conditions,WindDirDegrees,DateUTC
12:54 AM,37.9,28.9,70,30.07,10.0,WSW,6.9,-,N/A,,Overcast,240,2013-11-11 06:54:00
1:54 AM,37.9,28.9,70,30.07,10.0,West,5.8,-,N/A,,Overcast,280,2013-11-11 07:54:00
2:54 AM,37.0,30.0,76,30.07,10.0,WNW,10.4,-,0.00,Rain,Light Rain,290,2013-11-11 08:54:00
3:54 AM,36.0,30.0,79,30.08,9.0,WNW,11.5,-,0.00,Snow,Light Snow,300,2013-11-11 09:54:00
4:25 AM,33.8,30.2,87,30.05,2.5,WNW,8.1,-,0.00,Snow,Light Snow,300,2013-11-11 10:25:00
4:39 AM,33.8,30.2,87,30.07,3.0,WNW,8.1,-,0.00,Snow,Light Snow,300,2013-11-11 10:39:00
4:54 AM,34.0,32.0,92,30.11,3.0,NW,10.4,-,0.00,Snow,Light Snow,310,2013-11-11 10:54:00
4:58 AM,33.8,30.2,87,30.07,2.5,NW,9.2,-,0.00,Snow,Light Snow,310,2013-11-11 10:58:00
5:09 AM,33.8,30.2,87,30.07,1.8,NW,9.2,-,0.00,Snow,Light Snow,310,2013-11-11 11:09:00
5:54 AM,30.9,27.0,85,30.14,2.0,North,16.1,26.5,0.00,Snow,Light Snow,350,2013-11-11 11:54:00
6:08 AM,30.2,26.6,86,30.12,1.8,North,15.0,26.5,0.00,Snow,Light Snow,350,2013-11-11 12:08:00
6:21 AM,28.4,24.8,86,30.12,2.5,North,13.8,-,0.00,Snow,Light Snow,350,2013-11-11 12:21:00
6:24 AM,28.4,24.8,86,30.12,3.0,NNW,13.8,-,0.00,Snow,Light Snow,340,2013-11-11 12:24:00
6:54 AM,28.9,25.0,85,30.18,9.0,NNW,12.7,-,0.00,,Overcast,340,2013-11-11 12:54:00
7:01 AM,28.4,24.8,86,30.14,10.0,NNW,11.5,20.7,N/A,,Overcast,340,2013-11-11 13:01:00
7:54 AM,27.0,19.0,72,30.23,10.0,NNE,17.3,24.2,N/A,,Overcast,20,2013-11-11 13:54:00
8:20 AM,26.6,17.6,69,30.20,10.0,North,16.1,21.9,N/A,,Overcast,360,2013-11-11 14:20:00
8:54 AM,25.0,15.1,66,30.27,10.0,North,15.0,-,N/A,,Mostly Cloudy,360,2013-11-11 14:54:00
9:54 AM,24.1,15.1,69,30.31,10.0,NNW,21.9,27.6,N/A,,Clear,340,2013-11-11 15:54:00
10:34 AM,24.8,15.8,69,30.27,10.0,NNW,16.1,24.2,N/A,,Mostly Cloudy,340,2013-11-11 16:34:00
10:54 AM,24.1,14.0,65,30.33,10.0,North,16.1,24.2,N/A,,Mostly Cloudy,350,2013-11-11 16:54:00
11:13 AM,24.8,12.2,59,30.28,10.0,North,15.0,25.3,N/A,,Scattered Clouds,350,2013-11-11 17:13:00
11:54 AM,26.1,15.1,63,30.33,10.0,North,18.4,24.2,N/A,,Partly Cloudy,350,2013-11-11 17:54:00
12:54 PM,25.0,10.9,55,30.35,10.0,North,16.1,-,N/A,,Clear,350,2013-11-11 18:54:00
1:54 PM,27.0,12.9,56,30.36,10.0,NNW,13.8,21.9,N/A,,Partly Cloudy,340,2013-11-11 19:54:00
2:54 PM,28.9,9.0,43,30.38,10.0,North,16.1,23.0,N/A,,Clear,350,2013-11-11 20:54:00
3:54 PM,27.0,9.0,47,30.41,10.0,North,11.5,-,N/A,,Clear,350,2013-11-11 21:54:00
4:54 PM,25.0,7.0,46,30.44,10.0,North,11.5,20.7,N/A,,Partly Cloudy,350,2013-11-11 22:54:00
5:54 PM,25.0,8.1,49,30.48,10.0,North,12.7,-,N/A,,Partly Cloudy,10,2013-11-11 23:54:00
6:54 PM,25.0,9.0,51,30.51,10.0,NNW,13.8,-,N/A,,Overcast,340,2013-11-12 00:54:00
7:54 PM,23.0,10.0,58,30.54,10.0,NNW,11.5,-,N/A,,Clear,340,2013-11-12 01:54:00
8:54 PM,21.9,10.9,63,30.56,10.0,NNW,11.5,-,N/A,,Clear,330,2013-11-12 02:54:00
9:54 PM,21.0,10.9,65,30.60,10.0,NNW,13.8,-,N/A,,Clear,330,2013-11-12 03:54:00
10:54 PM,19.9,10.0,65,30.62,10.0,NNW,12.7,-,N/A,,Clear,330,2013-11-12 04:54:00
11:54 PM,19.0,10.0,68,30.63,10.0,NW,12.7,-,N/A,,Clear,320,2013-11-12 05:54:00